User: anonymous   Login
Location: Dover
(39.1580°N, 75.5250°W)
Time: 01:27:40
(UTC-04:00)
Language:

Cosmos 1437 Rocket - Orbit

View from above orbital plane
View from above orbital plane
View from above satellite
View from above satellite

Ground track
Ground track

The orbit data is extracted from the following two-line orbital elements,

1 13771U 83003B   16152.21478163  .00001135  00000-0  68246-4 0  9990
2 13771  81.1468  83.2866 0043074 187.5136 172.5450 15.09301801816165
Epoch (UTC): 31 May 2016 05:09:17
Eccentricity: 0.0043074
inclination: 81.1468°
perigee height: 508 km
apogee height: 568 km
right ascension of ascending node: 83.2866°
argument of perigee: 187.5136°
revolutions per day: 15.09301801
mean anomaly at epoch: 172.5450°
orbit number at epoch: 81616

The dashed part of the orbit path shows where the satellite is in the earth's shadow,  

DLR